Location: Newark
(50.0306°N, 2.3272°E)
Time: 05:32:06
(UTC+00:00)

Transit 2A Rocket - Pass Details

Date: 13 December 2019
Orbit: 593 x 910 km, 66.7° (Epoch: 24 January)

Event Time Altitude Azimuth Distance (km) Brightness Sun altitude
Rises 22:44:48 0° 326° (NNW) 2,854 - -60.7°
Reaches altitude 10° 22:47:12 10° 336° (NNW) 1,965 - -60.9°
Maximum altitude 22:51:13 34° 42° (NE) 1,045 - -61.2°
Drops below altitude 10° 22:55:26 10° 108° (ESE) 2,070 - -61.5°
Sets 22:58:00 0° 118° (ESE) 3,029 - -61.6°
